Location: Piotrkow Trybunalski
(51.4000°N, 19.6830°E)
Time: 13:00:21
(UTC+02:00)

Explorer 7 - Pass Details

Date: 03 February 2023
Orbit: 478 x 656 km, 50.3° (Epoch: 01 April)

Event Time Altitude Azimuth Distance (km) Brightness Sun altitude
Rises 17:22:11 0° 283° (WNW) 2,869 11.7 -7.8°
Reaches altitude 10° 17:24:44 10° 270° (W) 1,992 11.1 -8.2°
Maximum altitude 17:28:32 26° 215° (SW) 1,262 9.3 -8.8°
Drops below altitude 10° 17:32:26 10° 159° (SSE) 2,050 9.7 -9.3°
Sets 17:35:05 0° 147° (SSE) 2,971 10.4 -9.7°
